Location: Bydgoszcz
(53.1640°N, 17.9142°E)
Time: 08:32:16
(UTC+02:00)

PCSat - Pass Details

Date: 22 April 2024
Orbit: 783 x 792 km, 67.1° (Epoch: 27 May)

Event Time Altitude Azimuth Distance (km) Brightness Sun altitude
Rises 22:54:31 0° 274° (W) 3,286 13.2 -20.0°
Reaches altitude 10° 22:57:25 10° 289° (WNW) 2,360 12.7 -20.2°
Maximum altitude 23:01:41 23° 341° (NNW) 1,637 12.0 -20.5°
Drops below altitude 10° 23:05:59 10° 33° (NNE) 2,369 12.4 -20.8°
Sets 23:08:55 0° 48° (NE) 3,301 13.0 -21.0°
